EW5945 Weather Reports


Display with metric or nautical units.
time (UTC)temp
F
wind
direction
speed
MPH
gust
MPH
rain 1hr
in
rain 24hr
in
rain mn
in
humidity
%
barometer
mb
20210308001744 44 315 3.0 4.0 0.00 0.00 0.00 44 1028.5
20210308001254 44 22 2.0 6.0 0.00 0.00 0.00 44 1028.5
20210308000851 45 45 2.0 6.0 0.00 0.00 0.00 43 1028.3
20210308000657 45 338 2.0 6.0 0.00 0.00 0.00 42 1028.3
20210308000350 45 338 4.0 6.0 0.00 0.00 0.00 42 1028.0
20210307235923 46 0 3.0 4.0 0.00 0.00 0.00 41 1028.0
20210307234642 46 45 3.0 6.0 0.00 0.00 0.00 40 1027.8
20210307234122 47 22 5.0 8.0 0.00 0.00 0.00 39 1027.8
20210307233611 47 22 4.0 9.0 0.00 0.00 0.00 39 1027.8
20210307233326 47 22 4.0 9.0 0.00 0.00 0.00 39 1027.6
20210307233140 47 45 4.0 8.0 0.00 0.00 0.00 38 1027.6
20210307232543 48 22 4.0 8.0 0.00 0.00 0.00 38 1027.3
20210307231537 49 338 4.0 6.0 0.00 0.00 0.00 36 1027.3
20210307231059 49 0 3.0 9.0 0.00 0.00 0.00 35 1027.1
20210307230519 49 338 5.0 9.0 0.00 0.00 0.00 35 1027.1
20210307230120 50 22 4.0 12.0 0.00 0.00 0.00 34 1027.1
20210307225857 50 338 6.0 12.0 0.00 0.00 0.00 33 1026.9
20210307225422 51 315 6.0 9.0 0.00 0.00 0.00 32 1026.9
20210307224432 53 22 4.0 9.0 0.00 0.00 0.00 31 1026.6
20210307223925 53 22 6.0 15.0 0.00 0.00 0.00 31 1026.6
20210307223410 52 338 6.0 15.0 0.00 0.00 0.00 31 1026.5
20210307223206 53 0 8.0 12.0 0.00 0.00 0.00 31 1026.5
20210307223024 53 270 6.0 9.0 0.00 0.00 0.00 30 1026.5
20210307221953 53 0 7.0 9.0 0.00 0.00 0.00 30 1026.2
20210307221329 53 338 6.0 9.0 0.00 0.00 0.00 30 1026.2
20210307220821 53 112 5.0 13.0 0.00 0.00 0.00 29 1025.9
20210307220311 53 270 7.0 13.0 0.00 0.00 0.00 30 1025.9
20210307215836 54 338 7.0 13.0 0.00 0.00 0.00 30 1025.7
20210307215522 54 292 9.0 13.0 0.00 0.00 0.00 29 1025.7
20210307214715 54 68 9.0 15.0 0.00 0.00 0.00 30 1025.6
20210307214206 54 0 9.0 15.0 0.00 0.00 0.00 30 1025.6
20210307213808 55 0 8.0 18.0 0.00 0.00 0.00 29 1025.6
20210307213523 54 0 12.0 18.0 0.00 0.00 0.00 28 1025.5
20210307213231 55 0 10.0 15.0 0.00 0.00 0.00 28 1025.5
20210307212926 55 22 10.0 15.0 0.00 0.00 0.00 28 1025.4
20210307211624 55 45 11.0 15.0 0.00 0.00 0.00 29 1025.4
20210307211054 55 0 9.0 15.0 0.00 0.00 0.00 28 1025.3
20210307210547 55 292 9.0 15.0 0.00 0.00 0.00 29 1025.3
20210307210110 55 292 10.0 15.0 0.00 0.00 0.00 29 1025.3
20210307205850 55 270 6.0 15.0 0.00 0.00 0.00 30 1025.2
20210307205143 55 0 10.0 16.0 0.00 0.00 0.00 29 1025.2
20210307204531 55 338 13.0 16.0 0.00 0.00 0.00 30 1025.1
20210307204011 55 270 10.0 15.0 0.00 0.00 0.00 30 1025.1
20210307203454 56 338 5.0 17.0 0.00 0.00 0.00 31 1025.0
20210307202943 56 315 9.0 17.0 0.00 0.00 0.00 31 1025.0
20210307202640 56 68 8.0 14.0 0.00 0.00 0.00 32 1025.0
20210307202048 56 0 7.0 13.0 0.00 0.00 0.00 33 1024.9
20210307201419 55 45 5.0 13.0 0.00 0.00 0.00 33 1024.9
20210307200906 55 0 7.0 14.0 0.00 0.00 0.00 31 1025.0
20210307200358 55 0 9.0 14.0 0.00 0.00 0.00 31 1025.0
20210307200127 55 338 9.0 14.0 0.00 0.00 0.00 32 1025.0
20210307195919 55 338 9.0 14.0 0.00 0.00 0.00 32 1025.0
20210307195045 56 292 7.0 17.0 0.00 0.00 0.00 33 1025.0
20210307194325 55 22 10.0 17.0 0.00 0.00 0.00 33 1024.9
20210307193815 56 90 9.0 13.0 0.00 0.00 0.00 33 1024.9
20210307193316 56 45 7.0 11.0 0.00 0.00 0.00 35 1024.9
20210307192834 55 45 7.0 14.0 0.00 0.00 0.00 36 1024.9
20210307192450 55 45 9.0 14.0 0.00 0.00 0.00 35 1024.7
20210307191749 55 22 8.0 11.0 0.00 0.00 0.00 35 1024.7
20210307191227 56 0 7.0 13.0 0.00 0.00 0.00 35 1024.7
20210307190718 56 22 5.0 13.0 0.00 0.00 0.00 33 1025.0
20210307190210 54 0 5.0 9.0 0.00 0.00 0.00 35 1025.0
20210307185829 55 45 4.0 13.0 0.00 0.00 0.00 35 1025.0
20210307185413 56 45 8.0 13.0 0.00 0.00 0.00 35 1025.0
20210307184645 56 45 6.0 9.0 0.00 0.00 0.00 37 1025.1
20210307184137 55 0 5.0 12.0 0.00 0.00 0.00 36 1025.1
20210307183624 55 22 6.0 13.0 0.00 0.00 0.00 35 1025.1
20210307183116 57 0 8.0 13.0 0.00 0.00 0.00 36 1025.3
20210307182829 56 22 6.0 13.0 0.00 0.00 0.00 37 1025.3
20210307182437 56 68 8.0 13.0 0.00 0.00 0.00 38 1025.5
20210307181554 55 90 8.0 11.0 0.00 0.00 0.00 39 1025.5
20210307181039 56 22 8.0 9.0 0.00 0.00 0.00 38 1025.6
20210307180531 56 45 7.0 13.0 0.00 0.00 0.00 40 1025.6
20210307180025 56 90 8.0 10.0 0.00 0.00 0.00 37 1025.6
20210307175750 55 22 5.0 15.0 0.00 0.00 0.00 37 1026.0
20210307175218 54 338 4.0 15.0 0.00 0.00 0.00 40 1026.0
20210307174512 55 0 5.0 11.0 0.00 0.00 0.00 40 1026.1
20210307173945 56 68 6.0 9.0 0.00 0.00 0.00 39 1026.1
20210307173600 56 0 6.0 12.0 0.00 0.00 0.00 39 1026.2
20210307173253 55 0 7.0 13.0 0.00 0.00 0.00 38 1026.2
20210307173025 56 270 7.0 14.0 0.00 0.00 0.00 37 1026.2
20210307172156 56 22 10.0 17.0 0.00 0.00 0.00 39 1026.3
20210307171359 56 112 7.0 17.0 0.00 0.00 0.00 40 1026.3
20210307170850 56 68 5.0 13.0 0.00 0.00 0.00 40 1026.6
20210307170340 56 68 7.0 12.0 0.00 0.00 0.00 40 1026.6
20210307170119 56 270 7.0 13.0 0.00 0.00 0.00 41 1026.8
20210307165933 55 22 7.0 13.0 0.00 0.00 0.00 42 1026.8
20210307164846 55 248 7.0 13.0 0.00 0.00 0.00 43 1026.8
20210307164311 56 22 9.0 17.0 0.00 0.00 0.00 41 1026.9
20210307163758 55 45 8.0 17.0 0.00 0.00 0.00 42 1026.9
20210307163247 56 68 9.0 15.0 0.00 0.00 0.00 42 1027.0
20210307162911 55 68 7.0 10.0 0.00 0.00 0.00 43 1027.0
20210307162632 55 90 7.0 14.0 0.00 0.00 0.00 43 1027.0
20210307161727 54 45 9.0 14.0 0.00 0.00 0.00 45 1027.0
20210307161211 54 22 9.0 13.0 0.00 0.00 0.00 43 1027.0
20210307160712 54 22 8.0 13.0 0.00 0.00 0.00 45 1026.9
20210307160221 53 0 8.0 13.0 0.00 0.00 0.00 46 1026.9
20210307155954 54 22 4.0 13.0 0.00 0.00 0.00 46 1026.9
20210307155415 53 0 9.0 13.0 0.00 0.00 0.00 48 1026.9
20210307154639 53 0 8.0 13.0 0.00 0.00 0.00 46 1026.9
20210307154122 53 22 6.0 13.0 0.00 0.00 0.00 49 1026.9
20210307153609 53 0 5.0 15.0 0.00 0.00 0.00 48 1026.9
20210307153058 53 68 6.0 15.0 0.00 0.00 0.00 50 1026.9
20210307152825 52 45 7.0 13.0 0.00 0.00 0.00 52 1026.9
20210307152358 52 68 8.0 13.0 0.00 0.00 0.00 53 1026.9
20210307151603 52 68 8.0 13.0 0.00 0.00 0.00 52 1026.9
20210307151049 52 45 7.0 13.0 0.00 0.00 0.00 53 1026.9
20210307150530 50 22 7.0 11.0 0.00 0.00 0.00 54 1026.9
20210307145950 50 22 7.0 12.0 0.00 0.00 0.00 55 1026.8
20210307145731 49 45 8.0 13.0 0.00 0.00 0.00 55 1026.8
20210307144957 48 22 7.0 13.0 0.00 0.00 0.00 57 1026.8
20210307144412 48 45 8.0 12.0 0.00 0.00 0.00 58 1026.6
20210307143858 48 45 6.0 12.0 0.00 0.00 0.00 59 1026.6
20210307143351 47 22 6.0 12.0 0.00 0.00 0.00 61 1026.5
20210307142948 46 338 6.0 9.0 0.00 0.00 0.00 64 1026.5
20210307142825 46 270 6.0 11.0 0.00 0.00 0.00 65 1026.3
20210307141902 46 0 4.0 9.0 0.00 0.00 0.00 64 1026.3
20210307141242 45 22 5.0 8.0 0.00 0.00 0.00 66 1026.3
20210307140721 44 22 5.0 9.0 0.00 0.00 0.00 67 1026.2
20210307140209 44 0 7.0 9.0 0.00 0.00 0.00 67 1026.2
20210307135913 43 45 5.0 9.0 0.00 0.00 0.00 69 1026.1
20210307135558 42 90 4.0 11.0 0.00 0.00 0.00 70 1026.1
20210307134640 42 68 7.0 11.0 0.00 0.00 0.00 69 1026.0
20210307134124 41 22 6.0 9.0 0.00 0.00 0.00 71 1026.0
20210307133608 41 45 3.0 9.0 0.00 0.00 0.00 70 1026.0
20210307133152 40 45 4.0 9.0 0.00 0.00 0.00 72 1025.9
20210307132951 40 68 6.0 12.0 0.00 0.00 0.00 71 1025.9
20210307132423 41 68 5.0 12.0 0.00 0.00 0.00 68 1025.8
20210307131500 40 45 6.0 9.0 0.00 0.00 0.00 69 1025.8
20210307130951 39 68 4.0 6.0 0.00 0.00 0.00 70 1025.5
20210307130443 38 22 4.0 5.0 0.00 0.00 0.00 72 1025.5
20210307130204 37 22 4.0 6.0 0.00 0.00 0.00 74 1025.5
20210307125935 36 22 4.0 6.0 0.00 0.00 0.00 77 1025.4
20210307125204 36 22 4.0 6.0 0.00 0.00 0.00 77 1025.4
20210307124418 35 0 4.0 4.0 0.00 0.00 0.00 78 1025.3
20210307123902 35 338 2.0 5.0 0.00 0.00 0.00 81 1025.3
20210307123352 34 45 3.0 6.0 0.00 0.00 0.00 84 1025.1
20210307123033 31 0 3.0 6.0 0.00 0.00 0.00 94 1025.1
20210307122842 29 22 2.0 3.0 0.00 0.00 0.00 98 1025.0
20210307121900 29 0 0.0 2.0 0.00 0.00 0.00 96 1025.0
20210307121245 28 292 0.0 0.0 0.00 0.00 0.00 99 1025.0
20210307120736 28 292 0.0 0.0 0.00 0.00 0.00 99 1024.8
20210307120220 27 338 0.0 0.0 0.00 0.00 0.00 99 1024.8
20210307115919 27 338 0.0 0.0 0.00 0.00 0.00 99 1024.7
20210307115436 27 315 0.0 0.0 0.00 0.00 0.00 99 1024.7
20210307114557 27 22 0.0 0.0 0.00 0.00 0.00 99 1024.5
20210307114044 27 0 0.0 0.0 0.00 0.00 0.00 99 1024.5
20210307113548 27 22 0.0 0.0 0.00 0.00 0.00 99 1024.4
20210307113155 27 22 0.0 0.0 0.00 0.00 0.00 98 1024.4
20210307113020 27 22 0.0 0.0 0.00 0.00 0.00 98 1024.4
20210307112419 27 90 0.0 0.0 0.00 0.00 0.00 98 1024.2
20210307111449 27 90 0.0 0.0 0.00 0.00 0.00 98 1024.2
20210307110949 27 90 0.0 0.0 0.00 0.00 0.00 98 1024.0
20210307110541 27 90 0.0 0.0 0.00 0.00 0.00 98 1024.0
20210307110317 28 0 0.0 0.0 0.00 0.00 0.00 98 1024.0
20210307110026 28 315 0.0 0.0 0.00 0.00 0.00 98 1024.0
20210307104928 28 315 0.0 0.0 0.00 0.00 0.00 98 1024.0
20210307104322 28 292 0.0 0.0 0.00 0.00 0.00 98 1023.9
20210307103744 28 0 0.0 0.0 0.00 0.00 0.00 98 1023.9
20210307103238 28 0 0.0 0.0 0.00 0.00 0.00 98 1023.8
20210307102626 28 90 0.0 0.0 0.00 0.00 0.00 98 1023.6
20210307101647 28 338 0.0 0.0 0.00 0.00 0.00 98 1023.6
20210307101138 28 338 0.0 0.0 0.00 0.00 0.00 98 1023.7
20210307100622 28 315 0.0 0.0 0.00 0.00 0.00 98 1023.7
20210307100301 28 112 0.0 0.0 0.00 0.00 0.00 98 1023.7
20210307100046 29 22 0.0 0.0 0.00 0.00 0.00 98 1023.6
20210307095551 29 338 0.0 0.0 0.00 0.00 0.00 98 1023.6
20210307094528 29 338 0.0 0.0 0.00 0.00 0.00 98 1023.4
20210307094034 29 338 0.0 0.0 0.00 0.00 0.00 98 1023.4
20210307093509 29 292 0.0 0.0 0.00 0.00 0.00 98 1023.4
20210307092954 29 270 0.0 0.0 0.00 0.00 0.00 98 1023.4
20210307092824 29 270 0.0 0.0 0.00 0.00 0.00 98 1023.4
20210307092011 29 270 0.0 0.0 0.00 0.00 0.00 98 1023.3
20210307091412 29 225 0.0 3.0 0.00 0.00 0.00 98 1023.3
20210307090902 29 270 1.0 3.0 0.00 0.00 0.00 98 1023.2
20210307090355 29 292 0.0 0.0 0.00 0.00 0.00 98 1023.2
20210307090031 29 315 0.0 0.0 0.00 0.00 0.00 98 1023.1
20210307085741 29 338 0.0 0.0 0.00 0.00 0.00 98 1023.1
20210307084933 29 315 0.0 0.0 0.00 0.00 0.00 98 1023.1
20210307084315 29 338 0.0 0.0 0.00 0.00 0.00 97 1023.0
20210307083707 29 292 0.0 0.0 0.00 0.00 0.00 97 1023.0
20210307083231 29 292 0.0 0.0 0.00 0.00 0.00 97 1023.0
20210307082939 29 292 0.0 0.0 0.00 0.00 0.00 97 1023.0
20210307082548 29 292 0.0 0.0 0.00 0.00 0.00 97 1022.9
20210307081643 29 292 0.0 0.0 0.00 0.00 0.00 97 1022.9
20210307081128 29 315 0.0 0.0 0.00 0.00 0.00 96 1022.8
20210307080617 29 315 0.0 0.0 0.00 0.00 0.00 96 1022.8
20210307080104 29 338 0.0 0.0 0.00 0.00 0.00 96 1022.8
20210307075801 29 338 0.0 0.0 0.00 0.00 0.00 96 1022.8
20210307075246 29 338 0.0 0.0 0.00 0.00 0.00 96 1022.8
20210307074514 28 338 0.0 0.0 0.00 0.00 0.00 96 1022.9
20210307074009 28 338 0.0 0.0 0.00 0.00 0.00 96 1022.9
20210307073448 28 292 0.0 0.0 0.00 0.00 0.00 96 1022.9
20210307072942 28 292 0.0 0.0 0.00 0.00 0.00 96 1022.9
20210307072816 28 315 0.0 0.0 0.00 0.00 0.00 96 1022.9
20210307071953 28 270 0.0 0.0 0.00 0.00 0.00 96 1023.0
20210307071342 28 338 0.0 0.0 0.00 0.00 0.00 95 1023.0
20210307070832 28 315 0.0 0.0 0.00 0.00 0.00 94 1023.1
20210307070322 28 315 0.0 0.0 0.00 0.00 0.00 94 1023.1
20210307065843 28 292 0.0 0.0 0.00 0.00 0.00 93 1023.1
20210307065725 28 180 0.0 0.0 0.00 0.00 0.00 92 1023.1
20210307064920 28 180 0.0 0.0 0.00 0.00 0.00 92 1023.1
20210307064200 29 180 0.0 0.0 0.00 0.00 0.00 92 1023.1
20210307063657 29 180 0.0 0.0 0.00 0.00 0.00 93 1023.1
20210307063140 29 270 0.0 0.0 0.00 0.00 0.00 93 1023.0
20210307062818 29 315 0.0 0.0 0.00 0.00 0.00 93 1023.0
20210307062329 29 315 0.0 0.0 0.00 0.00 0.00 93 1022.9
20210307061546 29 315 0.0 0.0 0.00 0.00 0.00 92 1022.9
20210307061025 29 292 0.0 0.0 0.00 0.00 0.00 92 1022.9
20210307060529 29 292 0.0 0.0 0.00 0.00 0.00 92 1022.9
20210307060026 29 292 0.0 0.0 0.00 0.00 0.00 92 1022.9
20210307055849 29 292 0.0 0.0 0.00 0.00 0.00 92 1022.9
20210307054957 30 292 0.0 0.0 0.00 0.00 0.00 92 1022.9
20210307054439 30 292 0.0 0.0 0.00 0.00 0.00 92 1022.9
20210307053923 30 338 0.0 0.0 0.00 0.00 0.00 91 1022.9
20210307053414 30 338 0.0 0.0 0.00 0.00 0.00 91 1022.9
20210307052902 30 270 0.0 0.0 0.00 0.00 0.00 90 1022.9
20210307052806 30 292 0.0 0.0 0.00 0.00 0.00 90 1022.9
20210307051907 30 315 0.0 0.0 0.00 0.00 0.00 89 1022.9
20210307051321 31 292 0.0 0.0 0.00 0.00 0.00 89 1022.9
20210307050814 31 338 0.0 0.0 0.00 0.00 0.00 89 1022.9
20210307050305 31 338 0.0 0.0 0.00 0.00 0.00 89 1022.9
20210307045805 31 0 0.0 0.0 0.00 0.00 0.00 88 1022.9
20210307045431 31 338 0.0 0.0 0.00 0.00 0.00 87 1022.9
20210307044708 31 22 0.0 0.0 0.00 0.00 0.00 87 1023.0
20210307044156 31 22 0.0 0.0 0.00 0.00 0.00 87 1023.0
20210307043649 31 338 0.0 0.0 0.00 0.00 0.00 87 1023.0
20210307043151 31 292 0.0 0.0 0.00 0.00 0.00 86 1023.2
20210307042907 31 292 0.0 0.0 0.00 0.00 0.00 86 1023.2
20210307042410 31 90 0.0 0.0 0.00 0.00 0.00 85 1023.3
20210307041546 32 112 0.0 0.0 0.00 0.00 0.00 85 1023.3
20210307040950 32 112 0.0 0.0 0.00 0.00 0.00 85 1023.4
20210307040436 32 112 0.0 0.0 0.00 0.00 0.00 84 1023.4
20210307040029 32 112 0.0 0.0 0.00 0.00 0.00 84 1023.4
20210307035809 32 112 0.0 0.0 0.00 0.00 0.00 84 1023.4
20210307035023 32 112 0.0 0.0 0.00 0.00 0.00 82 1023.4
20210307034333 33 112 0.0 0.0 0.00 0.00 0.00 81 1023.5
20210307033750 33 112 0.0 0.0 0.00 0.00 0.00 81 1023.5
20210307033408 33 112 0.0 0.0 0.00 0.00 0.00 81 1023.4
20210307033104 33 45 0.0 0.0 0.00 0.00 0.00 79 1023.4
20210307032810 34 0 0.0 0.0 0.00 0.00 0.00 79 1023.4
20210307031657 34 0 0.0 0.0 0.00 0.00 0.00 79 1023.4
20210307031149 34 112 0.0 0.0 0.00 0.00 0.00 78 1023.4
20210307030641 34 112 0.0 0.0 0.00 0.00 0.00 77 1023.4
20210307030142 34 112 0.0 0.0 0.00 0.00 0.00 76 1023.4
20210307025930 34 112 0.0 0.0 0.00 0.00 0.00 76 1023.5
20210307025615 34 90 0.0 0.0 0.00 0.00 0.00 76 1023.5
20210307024449 35 112 0.0 0.0 0.00 0.00 0.00 76 1023.3
20210307023938 35 112 0.0 0.0 0.00 0.00 0.00 73 1023.3
20210307023344 35 68 0.0 0.0 0.00 0.00 0.00 74 1023.3
20210307023137 35 68 0.0 0.0 0.00 0.00 0.00 73 1023.3
20210307022939 35 135 0.0 0.0 0.00 0.00 0.00 64 1023.1
20210307022019 35 135 0.0 0.0 0.00 0.00 0.00 65 1023.1
20210307021311 35 135 0.0 0.0 0.00 0.00 0.00 66 1023.1
20210307020802 35 112 0.0 0.0 0.00 0.00 0.00 67 1023.0
20210307020405 36 112 0.0 0.0 0.00 0.00 0.00 62 1023.0
20210307020112 37 158 0.0 0.0 0.00 0.00 0.00 64 1022.9
20210307015851 37 158 0.0 0.0 0.00 0.00 0.00 61 1022.9
20210307014735 37 158 0.0 0.0 0.00 0.00 0.00 61 1022.8
20210307014221 37 180 0.0 0.0 0.00 0.00 0.00 57 1022.8
20210307013708 37 180 0.0 0.0 0.00 0.00 0.00 57 1022.8
20210307013153 37 180 0.0 0.0 0.00 0.00 0.00 58 1022.8
20210307012756 38 112 0.0 0.0 0.00 0.00 0.00 58 1022.8
20210307012214 38 112 0.0 0.0 0.00 0.00 0.00 56 1022.7
20210307011547 38 112 0.0 2.0 0.00 0.00 0.00 58 1022.7
20210307011033 38 112 0.0 4.0 0.00 0.00 0.00 55 1022.6
20210307010452 39 135 2.0 4.0 0.00 0.00 0.00 55 1022.6
20210307010119 39 158 0.0 3.0 0.00 0.00 0.00 55 1022.4
20210307005818 39 180 0.0 0.0 0.00 0.00 0.00 53 1022.4
20210307005200 39 158 0.0 0.0 0.00 0.00 0.00 54 1022.4
20210307004422 39 135 0.0 2.0 0.00 0.00 0.00 51 1022.2
20210307003907 39 135 1.0 2.0 0.00 0.00 0.00 51 1022.2
20210307003342 40 158 0.0 0.0 0.00 0.00 0.00 51 1022.0
20210307002901 40 158 0.0 0.0 0.00 0.00 0.00 49 1022.0
20210307002748 41 112 0.0 2.0 0.00 0.00 0.00 48 1021.8